[[{"header":{"parameterUnit":"m.s-1","parameterCategory":1,"la1":30.2991,"la2":30.254,"lo1":-89.0895,"lo2":-89.0444,"dy":0.0017,"dx":0.0017,"nx":28,"ny":28,"refTime":"2024-05-27T21:00:00:Z","depth":0,"parameterNumber":2,"parameterNumberName":"U-component_of_WINDS"},"data":[0,0,0,0,0,0,0,0,0,0,0,0,0,0,0,0,0,0,0,0,0,0,0,0,0,0,0,0,0,0,0,0,0,0,0,0,0,0,0,0,0,0,0,0,0,0,0,0,0,0,0,0,0,0,0,0,0,0,-0.193,-0.1929,0,-0.1762,-0.176,-0.1758,-0.1746,-0.1748,-0.175,-0.1751,-0.1576,-0.157,-0.1564,0,0,0,0,0,0,0,0,0,0,0,0,0,-0.2241,-0.2236,-0.1931,-0.1929,-0.1926,-0.1762,-0.176,-0.1757,-0.1745,-0.1748,-0.175,-0.1752,-0.1578,-0.1571,-0.1563,0,0,0,0,0,0,0,0,0,0,0,0,0,-0.2093,-0.2234,-0.1931,-0.1901,-0.1896,-0.1762,-0.176,-0.1757,-0.1745,-0.1748,-0.1751,-0.1753,-0.1581,-0.1572,-0.1562,-0.1446,0,0,-0.1533,-0.1529,0,0,0,0,0,0,0,0,-0.2101,-0.2081,-0.1907,-0.1903,-0.1897,-0.1778,-0.1805,-0.1653,-0.1744,-0.1802,-0.1751,-0.1755,-0.1641,-0.1627,-0.1589,-0.1438,-0.1431,-0.1532,-0.1526,-0.1522,-0.1519,0,0,0,0,0,0,0,-0.2111,-0.2088,-0.1864,-0.1905,-0.1899,-0.1895,-0.1877,-0.1776,-0.1708,-0.1797,-0.1796,-0.1777,-0.1639,-0.1598,-0.1584,-0.1428,-0.1532,-0.1524,-0.1518,-0.1514,-0.1174,-0.1171,0,0,0,0,0,0,-0.2128,-0.2097,-0.1869,-0.1859,-0.2008,-0.1887,-0.1867,-0.1813,-0.1709,-0.1696,-0.1774,-0.1777,-0.1613,-0.1596,-0.1578,-0.1435,-0.1522,-0.1513,-0.1507,-0.1177,-0.1173,-0.117,0,0,0,0,0,0,-0.2134,-0.2108,-0.1876,-0.1977,-0.1948,-0.1879,-0.1818,-0.1808,-0.1768,-0.1691,-0.1679,-0.1745,-0.1614,-0.1592,-0.1479,-0.1429,-0.1509,-0.15,-0.1181,-0.1176,-0.1172,-0.1148,0,0,0,0,0,0,-0.2143,-0.211,-0.2065,-0.1977,-0.1942,-0.178,-0.1815,-0.1803,-0.1751,-0.1753,-0.1661,-0.1648,-0.1615,-0.1494,-0.147,-0.1417,-0.1492,-0.1185,-0.1179,-0.1173,-0.1153,-0.1143,-0.1134,0,0,0,0,0,-0.2155,-0.2065,-0.2063,-0.2036,-0.1885,-0.1777,-0.1757,-0.1722,-0.1747,-0.1702,-0.1653,-0.1651,-0.1439,-0.1482,-0.1455,-0.1399,-0.1188,-0.1181,-0.1174,-0.1157,-0.1145,-0.1135,0,0,0,0,0,0,-0.2149,-0.2053,-0.205,-0.1929,-0.1861,-0.1775,-0.1716,-0.171,-0.1633,-0.1637,-0.1596,-0.1575,-0.1464,-0.142,-0.147,-0.1281,-0.1316,-0.1303,-0.1313,-0.1301,-0.1292,-0.1303,-0.1484,0,0,0,0,0,-0.2134,-0.2054,-0.1975,-0.1876,-0.1842,-0.1786,-0.1737,-0.1715,-0.1643,-0.1614,-0.1557,-0.1487,-0.1404,-0.1351,-0.1271,-0.1148,-0.1127,-0.1096,-0.1087,-0.1079,-0.1068,-0.0999,-0.0984,-0.1146,-0.1146,-0.1146,0,0,-0.2101,-0.2039,-0.1991,-0.1873,-0.1818,-0.1736,-0.1761,-0.1674,-0.1612,-0.1601,-0.1491,-0.1447,-0.1366,-0.1248,-0.1193,-0.1208,-0.1019,-0.107,-0.1065,-0.1057,-0.099,-0.0974,-0.0961,-0.1141,-0.1142,-0.1142,0,0,-0.1999,-0.1945,-0.1856,-0.1801,-0.1718,-0.1681,-0.166,-0.1575,-0.1546,-0.1435,-0.1425,-0.1352,-0.121,-0.1153,-0.1105,-0.0984,-0.0979,-0.0959,-0.0909,-0.0843,-0.083,-0.0818,-0.0773,-0.0758,-0.0948,-0.0948,-0.0948,0,-0.1969,-0.1846,-0.1812,-0.1724,-0.1672,-0.166,-0.1569,-0.1517,-0.1412,-0.1376,-0.1396,-0.1218,-0.1163,-0.1031,-0.1001,-0.0964,-0.0937,-0.0968,-0.0835,-0.0823,-0.0811,-0.0768,-0.0752,-0.0946,-0.0946,-0.0946,-0.0947,0,-0.1812,-0.1726,-0.1665,-0.1564,-0.1506,-0.1417,-0.1369,-0.1314,-0.1299,-0.126,-0.1147,-0.1081,-0.0987,-0.0954,-0.0938,-0.082,-0.0832,-0.0844,-0.0877,-0.0794,-0.0753,-0.0736,-0.0943,-0.0944,-0.0944,-0.0945,0,0,-0.1699,-0.1582,-0.156,-0.1514,-0.1422,-0.1355,-0.1267,-0.1176,-0.1128,-0.1057,-0.0981,-0.0863,-0.0873,-0.0819,-0.0796,-0.0738,-0.0645,-0.0757,-0.0754,-0.0737,-0.0509,-0.05,-0.0481,-0.0643,-0.0639,-0.0637,-0.0516,0,-0.1585,-0.1427,-0.1394,-0.1257,-0.1177,-0.1166,-0.1088,-0.1024,-0.0985,-0.0912,-0.087,-0.0786,-0.0807,-0.0774,-0.0716,-0.0669,-0.0598,-0.0677,-0.057,-0.0566,-0.0588,-0.046,-0.0449,-0.0337,-0.0499,-0.0497,-0.0495,0,-0.1431,-0.1357,-0.1211,-0.1131,-0.1096,-0.1027,-0.0941,-0.0872,-0.0798,-0.0775,-0.0715,-0.0699,-0.0606,-0.0647,-0.0517,-0.0572,-0.0526,-0.0496,-0.0491,-0.0478,-0.0524,-0.0441,-0.0301,-0.0284,-0.0469,-0.0471,-0.0473,0,-0.1361,-0.1225,-0.112,-0.1082,-0.0985,-0.0937,-0.0895,-0.0824,-0.0772,-0.0697,-0.0662,-0.0578,-0.0531,-0.0465,-0.0427,-0.046,-0.03,-0.0338,-0.0277,-0.0277,-0.0241,-0.0243,-0.009,-0.0216,-0.0216,-0.0216,-0.0217,0,-0.1236,-0.1147,-0.1087,-0.1023,-0.0923,-0.0887,-0.0789,-0.0747,-0.0685,-0.0612,-0.0597,-0.0529,-0.0483,-0.0408,-0.0378,-0.0275,-0.0254,-0.0232,-0.0224,-0.0231,-0.0234,-0.0199,-0.0205,-0.0212,-0.0213,-0.0214,-0.0214,0,-0.114,-0.1096,-0.0981,-0.09,-0.0878,-0.0808,-0.0738,-0.0675,-0.0638,-0.0545,-0.0521,-0.0462,-0.0373,-0.033,-0.0219,-0.0198,-0.0081,-0.008,-0.0106,-0.0103,-0.0043,-0.0049,0.014,0.0167,0.0021,0.0022,0.0023,0,-0.1062,-0.0993,-0.0906,-0.0856,-0.0812,-0.0733,-0.0679,-0.0642,-0.0587,-0.0499,-0.0446,-0.0357,-0.0283,-0.0142,-0.0088,-0.0004,0.0001,0.0061,0.0014,0.0005,0.0004,0.0001,0.0008,0.007,0.0072,0.0073,0.0074,0,-0.0928,-0.091,-0.0834,-0.075,-0.0687,-0.0619,-0.0553,-0.0513,-0.0465,-0.0404,-0.0313,-0.0256,-0.0144,-0.0055,0.0033,0.0077,0.0084,0.0088,0.0107,0.0101,0.0084,0.0096,-0.0081,0.0084,0.0083,0.0082,0.0082,0.0081,-0.0836,-0.0775,-0.0704,-0.0619,-0.0566,-0.0504,-0.0441,-0.0396,-0.032,-0.0226,-0.0209,-0.0112,-0.0041,0.0078,0.0124,0.02,0.0187,0.0214,0.0222,0.0228,0.0232,0.0069,0.0216,0.0216,0.0216,0.0216,0.0215,0,-0.07,-0.0654,-0.0577,-0.0485,-0.0418,-0.042,-0.0346,-0.0291,-0.0206,-0.0141,-0.0069,0.0035,0.0121,0.0179,0.0267,0.0316,0.0322,0.0338,0.0336,0.0346,0.0238,0.0214,0.0332,0.0332,0.0332,0.0332,0.0332,0.0332,-0.0621,-0.0516,-0.0491,-0.036,-0.0314,-0.022,-0.0178,-0.0121,-0.0069,0.0047,0.0118,0.0155,0.0218,0.031,0.0388,0.0403,0.0436,0.0452,0.0468,0.0366,0.0354,0.0342,0.032,0.0459,0.0459,0.057,0.0571,0.0572]},{"header":{"parameterUnit":"m.s-1","parameterCategory":1,"la1":30.2991,"la2":30.254,"lo1":-89.0895,"lo2":-89.0444,"dy":0.0017,"dx":0.0017,"nx":28,"ny":28,"refTime":"2024-05-27T21:00:00:Z","depth":0,"parameterNumber":3,"parameterNumberName":"V-component_of_WINDS"},"data":[0,0,0,0,0,0,0,0,0,0,0,0,0,0,0,0,0,0,0,0,0,0,0,0,0,0,0,0,0,0,0,0,0,0,0,0,0,0,0,0,0,0,0,0,0,0,0,0,0,0,0,0,0,0,0,0,0,0,1.1021,1.1021,0,1.1045,1.1045,1.1046,1.1057,1.1057,1.1057,1.1057,1.1081,1.1082,1.1082,0,0,0,0,0,0,0,0,0,0,0,0,0,1.0982,1.0983,1.1021,1.1021,1.1022,1.1045,1.1045,1.1046,1.1057,1.1057,1.1057,1.1057,1.1081,1.1081,1.1082,0,0,0,0,0,0,0,0,0,0,0,0,0,1.1002,1.0983,1.1021,1.103,1.1031,1.1045,1.1046,1.1046,1.1057,1.1057,1.1057,1.1057,1.1081,1.1081,1.1082,1.1088,0,0,1.1085,1.1086,0,0,0,0,0,0,0,0,1.1001,1.1003,1.1029,1.103,1.1031,1.1048,1.1041,1.106,1.1057,1.1047,1.1057,1.1057,1.107,1.1072,1.1076,1.1089,1.109,1.1085,1.1086,1.1086,1.1087,0,0,0,0,0,0,0,1.0999,1.1002,1.1031,1.1029,1.103,1.1032,1.1035,1.1044,1.1058,1.1048,1.1049,1.1052,1.1071,1.1075,1.1077,1.1091,1.1085,1.1086,1.1087,1.1087,1.1108,1.1108,0,0,0,0,0,0,1.0997,1.1001,1.103,1.1031,1.1016,1.1033,1.1036,1.1043,1.1058,1.1061,1.1052,1.1052,1.1074,1.1076,1.1078,1.1085,1.1086,1.1087,1.1088,1.1108,1.1108,1.1108,0,0,0,0,0,0,1.0996,1.0999,1.1029,1.1016,1.102,1.1034,1.1041,1.1043,1.1048,1.1061,1.1064,1.1054,1.1074,1.1077,1.1085,1.1086,1.1088,1.1088,1.1108,1.1108,1.1108,1.1099,0,0,0,0,0,0,1.0995,1.0999,1.1002,1.1016,1.1021,1.1037,1.1041,1.1044,1.105,1.1051,1.1064,1.1066,1.1074,1.1084,1.1086,1.1087,1.1089,1.1108,1.1108,1.1108,1.11,1.1099,1.1098,0,0,0,0,0,1.0993,1.0999,1.1002,1.1006,1.1025,1.1037,1.1039,1.1048,1.105,1.1052,1.1061,1.1066,1.1085,1.1085,1.1087,1.1089,1.1108,1.1108,1.1108,1.11,1.1099,1.1098,0,0,0,0,0,0,1.0984,1.1001,1.1005,1.1015,1.1024,1.1039,1.1043,1.1048,1.1056,1.1057,1.1067,1.107,1.1078,1.1084,1.1083,1.1094,1.1097,1.1098,1.109,1.1089,1.1089,1.1087,1.109,0,0,0,0,0,1.0984,1.0992,1.1006,1.1014,1.1018,1.1029,1.1035,1.1041,1.105,1.1054,1.1063,1.1072,1.108,1.1085,1.1093,1.11,1.1103,1.1102,1.1102,1.1101,1.1102,1.1104,1.1104,1.1108,1.1108,1.1108,0,0,1.0982,1.0992,1.0997,1.1012,1.102,1.1027,1.1033,1.1041,1.1046,1.1055,1.1064,1.1071,1.1081,1.1089,1.1093,1.1094,1.1101,1.1101,1.1101,1.1101,1.1104,1.1104,1.1104,1.1108,1.1108,1.1108,0,0,1.0983,1.0992,1.0999,1.1006,1.1018,1.1025,1.1026,1.1039,1.1044,1.1053,1.106,1.1066,1.108,1.1086,1.1091,1.1093,1.1097,1.1095,1.1092,1.1094,1.1094,1.1094,1.1093,1.1093,1.1095,1.1095,1.1095,0,1.098,1.0992,1.1001,1.1009,1.1014,1.1023,1.1029,1.1036,1.1049,1.1052,1.1054,1.1071,1.1078,1.1087,1.1087,1.1091,1.1092,1.1094,1.1093,1.1093,1.1093,1.1093,1.1093,1.1095,1.1095,1.1095,1.1095,0,1.0986,1.0994,1.0998,1.1011,1.1017,1.1024,1.1033,1.1038,1.1043,1.105,1.1058,1.1067,1.1076,1.1079,1.1084,1.1088,1.1088,1.1092,1.1095,1.1092,1.1092,1.1092,1.1094,1.1094,1.1094,1.1094,0,0,1.0984,1.1,1.1001,1.1006,1.1019,1.1025,1.1031,1.104,1.1043,1.1052,1.1057,1.1067,1.107,1.1076,1.1082,1.1084,1.1083,1.1087,1.1087,1.1085,1.1086,1.1083,1.1083,1.1086,1.1086,1.1086,1.1085,0,1.0986,1.0998,1.1006,1.1014,1.1021,1.1028,1.1033,1.1041,1.1047,1.1053,1.1059,1.1066,1.107,1.1073,1.1076,1.1082,1.1083,1.1083,1.109,1.109,1.1086,1.1083,1.108,1.1078,1.1085,1.1085,1.1085,0,1.099,1.0998,1.1007,1.1017,1.102,1.1025,1.1033,1.1039,1.1047,1.1051,1.1056,1.1062,1.1068,1.107,1.1077,1.1077,1.108,1.1083,1.1084,1.1084,1.1087,1.1083,1.1078,1.1078,1.1085,1.1085,1.1085,0,1.0986,1.0999,1.1005,1.1009,1.1022,1.1024,1.1029,1.1038,1.1042,1.1049,1.1052,1.1059,1.1063,1.1068,1.1075,1.1076,1.1081,1.1084,1.1084,1.1083,1.1084,1.1084,1.108,1.1087,1.1087,1.1087,1.1087,0,1.0987,1.0992,1.1003,1.1007,1.1013,1.1021,1.1026,1.1031,1.1038,1.1043,1.1049,1.1053,1.1063,1.1067,1.1073,1.1077,1.1079,1.1082,1.1083,1.1081,1.108,1.1083,1.1083,1.1087,1.1087,1.1087,1.1087,0,1.0984,1.0991,1.0999,1.1009,1.1012,1.1015,1.1024,1.1027,1.1033,1.1038,1.104,1.1049,1.1055,1.1062,1.1071,1.1074,1.1078,1.108,1.1075,1.1075,1.1074,1.1074,1.1071,1.107,1.1079,1.1078,1.1078,0,1.0984,1.0988,1.0998,1.1001,1.1006,1.1012,1.1016,1.1024,1.1028,1.1036,1.1038,1.1045,1.105,1.1059,1.1066,1.1072,1.1074,1.1072,1.1075,1.1072,1.1073,1.1072,1.1072,1.1071,1.1071,1.1071,1.1071,0,1.0983,1.0986,1.0992,1.0999,1.1003,1.1009,1.1015,1.1018,1.1026,1.103,1.1036,1.104,1.1048,1.1054,1.106,1.1065,1.1069,1.107,1.107,1.1068,1.1065,1.1065,1.1072,1.107,1.107,1.107,1.1071,1.1071,1.0981,1.0984,1.0991,1.0997,1.1002,1.1007,1.1011,1.1016,1.1021,1.1028,1.1032,1.1038,1.1044,1.1053,1.1057,1.1061,1.1063,1.1063,1.1063,1.1063,1.1062,1.1064,1.1062,1.1062,1.1062,1.1062,1.1062,0,1.0979,1.0984,1.0989,1.0997,1.1001,1.1005,1.1011,1.1014,1.1019,1.1024,1.1029,1.1035,1.104,1.1047,1.1052,1.1054,1.1056,1.1055,1.1055,1.1055,1.106,1.1059,1.1053,1.1053,1.1053,1.1053,1.1053,1.1053,1.0979,1.0984,1.0988,1.0995,1.0999,1.1005,1.1008,1.1012,1.1016,1.1022,1.1027,1.1031,1.1036,1.1042,1.1046,1.1048,1.1049,1.1048,1.105,1.1054,1.1055,1.1056,1.1055,1.1048,1.1048,1.1045,1.1045,1.1045]}]]